Fort Hood, TX

7:28 AM CST on November 18, 2019 (GMT -0600)
Killeen-Fort Hood Regional

Weather History for KGRK - August, 2019

Change the Weather History Date:

Friday, August 23, 2019

  Actual Average Record
Temperature  
Mean Temperature 86 °F -  
Max Temperature 97 °F 92 °F 104 °F (2010)
Min Temperature 75 °F 72 °F 69 °F (2012)
Cooling Degree Days 20    
Growing Degree Days 36 (Base 50)    
Moisture  
Dew Point 70 °F    
Average Humidity 67    
Maximum Humidity 89    
Minimum Humidity 35    
Precipitation  
Precipitation 0.00 in - - ()
Sea Level Pressure  
Sea Level Pressure 29.88 in    
Wind  
Wind Speed 8 mph (SSE)    
Max Wind Speed 18 mph    
Max Gust Speed -    
Visibility 10 miles    
Events      
Averages and records for this station are not official NWS values.
T = Trace of Precipitation, MM = Missing Value Source: NWS Daily Summary

Daily Weather History Graph

Daily Weather History Graph

Search for Another Location

Airport or City:

Astronomy

Aug. 23, 2019 Rise Set
Actual Time 7:02 AM CDT 8:05 PM CDT
Civil Twilight 6:36 AM CDT 8:30 PM CDT
Nautical Twilight 6:07 AM CDT 9:00 PM CDT
Astronomical Twilight 5:36 AM CDT 9:30 PM CDT
Moon 12:24 AM CDT (8/23) 2:10 PM CDT (8/23)
Length of Visible Light 13h 53m
Length of Day
13h 03m
Waning Gibbous, 49% of the Moon is Illuminated
Aug 23
Waning Gibbous
Aug 30
New
Sep 5
First Quarter
Sep 13
Full
Sep 21
Last Quarter

Hourly Weather History & Observations

Time (CDT) Temp. Heat Index Dew Point Humidity Pressure Visibility Wind Dir Wind Speed Gust Speed Precip Events Conditions
12:58 AM 81.9 °F 86.2 °F 71.4 °F 70% 29.88 in 10.0 mi SSE 11.5 mph - N/A   Clear
1:58 AM 80.4 °F 84.2 °F 71.4 °F 74% 29.89 in 10.0 mi SSE 10.4 mph - N/A   Clear
2:58 AM 78.8 °F - 71.4 °F 78% 29.88 in 10.0 mi South 5.8 mph - N/A   Clear
3:58 AM 77.2 °F - 71.2 °F 82% 29.87 in 10.0 mi South 4.6 mph - N/A   Clear
5:58 AM 75.2 °F - 71.1 °F 87% 29.88 in 10.0 mi SSE 4.6 mph - N/A   Clear
6:53 AM 75.2 °F - 71.6 °F 89% 29.89 in 10.0 mi SSE 4.6 mph - N/A   Mostly Cloudy
6:58 AM 75.0 °F - 71.4 °F 89% 29.89 in 10.0 mi SSE 5.8 mph - N/A   Mostly Cloudy
7:08 AM 75.2 °F - 71.6 °F 89% 29.91 in 10.0 mi South 5.8 mph - N/A   Scattered Clouds
7:28 AM 75.2 °F - 71.6 °F 89% 29.92 in 10.0 mi SSE 5.8 mph - N/A   Mostly Cloudy
7:58 AM 77.0 °F - 71.6 °F 83% 29.92 in 10.0 mi SSE 5.8 mph - N/A   Scattered Clouds
8:13 AM 78.8 °F - 73.4 °F 83% 29.91 in 10.0 mi SSE 5.8 mph - N/A   Mostly Cloudy
8:38 AM 80.6 °F 85.4 °F 73.4 °F 79% 29.91 in 10.0 mi South 8.1 mph - N/A   Scattered Clouds
8:58 AM 81.5 °F 86.3 °F 72.7 °F 74% 29.91 in 10.0 mi SSE 6.9 mph - N/A   Partly Cloudy
9:58 AM 82.6 °F 87.1 °F 71.1 °F 68% 29.91 in 10.0 mi SSW 6.9 mph - N/A   Scattered Clouds
10:08 AM 84.2 °F 89.6 °F 71.6 °F 66% 29.91 in 10.0 mi South 5.8 mph - N/A   Mostly Cloudy
10:13 AM 84.2 °F 89.6 °F 71.6 °F 66% 29.91 in 10.0 mi SSW 6.9 mph - N/A   Scattered Clouds
10:28 AM 82.4 °F 87.2 °F 71.6 °F 70% 29.91 in 10.0 mi South 5.8 mph - N/A   Mostly Cloudy
10:33 AM 82.4 °F 87.2 °F 71.6 °F 70% 29.91 in 10.0 mi South 4.6 mph - N/A   Scattered Clouds
10:58 AM 85.6 °F 91.1 °F 71.2 °F 62% 29.91 in 10.0 mi South 4.6 mph - N/A   Clear
11:58 AM 88.9 °F 94.2 °F 70.5 °F 54% 29.91 in 10.0 mi SSE 4.6 mph - N/A   Partly Cloudy
12:58 PM 90.1 °F 94.4 °F 68.5 °F 49% 29.88 in 10.0 mi Calm Calm - N/A   Clear
1:58 PM 93.9 °F 99.1 °F 68.7 °F 44% 29.86 in 10.0 mi East 5.8 mph - N/A   Scattered Clouds
2:58 PM 95.2 °F 98.8 °F 66.9 °F 39% 29.83 in 10.0 mi SE 9.2 mph - N/A   Scattered Clouds
3:58 PM 95.7 °F 99.2 °F 66.6 °F 38% 29.81 in 10.0 mi East 9.2 mph - N/A   Partly Cloudy
4:58 PM 96.4 °F 98.9 °F 64.6 °F 35% 29.79 in 10.0 mi East 15.0 mph - N/A   Clear
5:58 PM 95.4 °F 97.1 °F 64.0 °F 35% 29.79 in 10.0 mi East 15.0 mph - N/A   Scattered Clouds
6:58 PM 93.2 °F 95.3 °F 64.9 °F 39% 29.79 in 10.0 mi East 12.7 mph - N/A   Clear
7:58 PM 88.3 °F 94.1 °F 71.1 °F 56% 29.81 in 9.0 mi SE 18.4 mph - N/A   Partly Cloudy
8:58 PM 84.0 °F 89.0 °F 71.1 °F 65% 29.85 in 10.0 mi SSE 13.8 mph - N/A   Clear
9:58 PM 82.0 °F 86.5 °F 71.2 °F 70% 29.88 in 10.0 mi SE 11.5 mph - N/A   Partly Cloudy
10:58 PM 81.3 °F 85.2 °F 70.5 °F 70% 29.90 in 10.0 mi South 8.1 mph - N/A   Scattered Clouds
11:58 PM 80.6 °F 84.4 °F 71.2 °F 73% 29.90 in 10.0 mi SSW 4.6 mph - N/A   Partly Cloudy